Regional Weather Roundup
Issued by NWS

Home | Current Version | Previous Version | Graphics & Text | Print | Product List | Glossary On
Versions: 1 2 3 4 5 6 7 8 9 10 11 12 13 14 15 16 17 18 19 20 21 22 23 24 25 26 27 28 29 30 31 32 33 34 35 36 37 38 39 40 41 42 43 44 45 46 47 48 49 50
000
ASUS43 KBIS 281310
RWRND

NORTH DAKOTA REGIONAL WEATHER ROUNDUP
NATIONAL WEATHER SERVICE BISMARCK ND
800 AM CDT SAT MAR 28 2015

NOTE: "FAIR" INDICATES FEW OR NO CLOUDS BELOW 12,000 FEET WITH NO
SIGNIFICANT WEATHER AND/OR OBSTRUCTIONS TO VISIBILITY.


NDZ001>003-009>011-017-281400-
NORTHWEST NORTH DAKOTA

CITY           SKY/WX    TMP DP  RH WIND       PRES   REMARKS
WILLISTON      CLEAR     38  33  82 S5        29.78F
MINOT          FOG       28  26  92 SE8       29.87F VSB 1/2 WCI  20
MINOT AFB      FRZ DRZL  28  28 100 SE13      29.86F VSB 1/2 WCI  17
$$

NDZ018>021-031>035-040>046-281400-
SOUTHWEST NORTH DAKOTA

CITY           SKY/WX    TMP DP  RH WIND       PRES   REMARKS
BISMARCK       FOG       28  28 100 SE12      29.96F VSB 1/4 WCI  18
DICKINSON      CLEAR     38  32  79 S15       29.83F
GARRISON         N/A     29  28  96 SE10      29.89F WCI  20
HETTINGER ARPT CLEAR     37  31  78 SE8       29.90S
$$

NDZ004>008-012>016-024-026-027-054-281400-
NORTHEAST NORTH DAKOTA

CITY           SKY/WX    TMP DP  RH WIND       PRES   REMARKS
GRAND FORKS    PTCLDY    23  17  78 S10       30.09S WCI  12
DEVILS LAKE    CLOUDY    28  27  93 S14       29.98F WCI  17
$$

NDZ022-023-025-028>030-036>039-047>053-281400-
SOUTHEAST NORTH DAKOTA

CITY           SKY/WX    TMP DP  RH WIND       PRES   REMARKS
FARGO          PTCLDY    27  19  72 SE15      30.12S WCI  15
JAMESTOWN      CLOUDY    30  27  88 S13       30.02F WCI  20
$$



USA.gov is the U.S. government's official web portal to all federal, state and local government web resources and services.